OPTUS 10

Last updated on Tue Oct 14 2025 00:02:48 GMT+0000 (Coordinated Universal Time)

1 40146U 14054A 25286.59003292 -.00000160 00000+0 00000+0 0 9998 2 40146 0.1218 30.4785 0003242 170.7116 189.6632 1.00270643 40552
UTC large
Height (km)
Speed (km/s)
/
Latitude / Longitude
Inclination (degrees)
Orbital Period (minutes)
Azimuth
Elevation
Range (km)
Doppler Factor

Next 0 passes for location: London (51.5072 / 0.1276)

Sorry there are no passes over London.